Datum;Stunden;Zählung;Temperatur (°C);Min. Temperatur (°C);Max. Temperatur (°C);Windstärke (km/h);Regen (mm);Schnee (mm);Wetter
01.01.2016;00:00:00;5;5;-;-;22;;;Nebel
01.01.2016;01:00:00;5;5;-;-;20;;;Nebel
01.01.2016;02:00:00;7;5;-;-;26;;;Nebel
01.01.2016;03:00:00;4;5;-;-;20;;;wolkig
01.01.2016;04:00:00;3;6;-;-;17;;;wolkig
01.01.2016;05:00:00;3;6;-;-;15;;;wolkig
01.01.2016;06:00:00;3;4;-;-;15;;;teilweise bewölkt
01.01.2016;07:00:00;2;4;-;-;13;;;teilweise bewölkt
01.01.2016;08:00:00;0;5;-;-;15;;;teilweise bewölkt
01.01.2016;09:00:00;7;6;-;-;13;;;wolkig
01.01.2016;10:00:00;8;6;-;-;13;;;wolkig
01.01.2016;11:00:00;20;7;-;-;9;;;wolkig
01.01.2016;12:00:00;15;8;-;-;7;;;
01.01.2016;13:00:00;15;8;-;-;7;;;teilweise bewölkt
01.01.2016;14:00:00;8;8;-;-;7;;;wolkig
01.01.2016;15:00:00;12;6;-;-;9;;;Klarer Himmel
01.01.2016;16:00:00;17;6;-;-;13;;;wolkig
01.01.2016;17:00:00;10;6;-;-;13;;;Klarer Himmel
01.01.2016;18:00:00;8;6;-;-;13;;;wolkig
01.01.2016;19:00:00;13;6;-;-;13;;;wolkig
01.01.2016;20:00:00;14;6;-;-;19;;;wolkig
01.01.2016;21:00:00;6;6;-;-;13;;;wolkig
01.01.2016;22:00:00;2;7;-;-;24;;;wolkig
01.01.2016;23:00:00;7;6;-;-;24;;;wolkig
02.01.2016;00:00:00;1;6;-;-;28;;;wolkig
02.01.2016;01:00:00;1;6;-;-;24;;;wolkig
02.01.2016;02:00:00;2;5;-;-;13;;;wolkig
02.01.2016;03:00:00;0;5;-;-;26;;;wolkig
02.01.2016;04:00:00;1;5;-;-;26;;;wolkig
02.01.2016;05:00:00;7;5;-;-;24;;;wolkig
02.01.2016;06:00:00;1;5;-;-;24;;;wolkig
02.01.2016;07:00:00;2;5;-;-;22;;;wolkig
02.01.2016;08:00:00;2;5;-;-;24;;;Regen
02.01.2016;09:00:00;8;5;-;-;28;;;Regen
02.01.2016;10:00:00;14;5;-;-;30;;;Regen
02.01.2016;11:00:00;16;5;-;-;30;;;Regen
02.01.2016;12:00:00;16;5;-;-;26;;;Regen
02.01.2016;13:00:00;16;5;-;-;28;;;Regen
02.01.2016;14:00:00;20;5;-;-;28;;;Regen
02.01.2016;15:00:00;16;5;-;-;26;;;wolkig
02.01.2016;16:00:00;13;5;-;-;24;;;teilweise bewölkt
02.01.2016;17:00:00;21;5;-;-;22;;;wolkig
02.01.2016;18:00:00;10;5;-;-;24;;;wolkig
02.01.2016;19:00:00;12;5;-;-;30;;;wolkig
02.01.2016;20:00:00;16;5;-;-;30;;;wolkig
02.01.2016;21:00:00;13;5;-;-;30;;;wolkig
02.01.2016;22:00:00;5;6;-;-;28;;;wolkig
02.01.2016;23:00:00;5;6;-;-;28;;;wolkig
03.01.2016;00:00:00;3;6;-;-;26;;;Regen
03.01.2016;01:00:00;0;6;-;-;24;;;wolkig
03.01.2016;02:00:00;5;6;-;-;22;;;wolkig
03.01.2016;03:00:00;1;6;-;-;24;;;wolkig
03.01.2016;04:00:00;0;6;-;-;24;;;Regen
03.01.2016;05:00:00;3;6;-;-;20;;;Regen
03.01.2016;06:00:00;2;6;-;-;20;;;Regen
03.01.2016;07:00:00;3;6;-;-;20;;;Regen
03.01.2016;08:00:00;4;6;-;-;20;;;Regen
03.01.2016;09:00:00;7;6;-;-;17;;;Regen
03.01.2016;10:00:00;16;7;-;-;15;;;wolkig
03.01.2016;11:00:00;18;7;-;-;17;;;wolkig
03.01.2016;12:00:00;13;8;-;-;19;;;teilweise bewölkt
03.01.2016;13:00:00;15;8;-;-;19;;;wolkig
03.01.2016;14:00:00;20;8;-;-;17;;;wolkig
03.01.2016;15:00:00;29;7;-;-;20;;;Regen
03.01.2016;16:00:00;16;7;-;-;19;;;wolkig
03.01.2016;17:00:00;25;7;-;-;20;;;Klarer Himmel
03.01.2016;18:00:00;12;6;-;-;24;;;Klarer Himmel
03.01.2016;19:00:00;10;7;-;-;28;;;Klarer Himmel
03.01.2016;20:00:00;12;6;-;-;28;;;wolkig
03.01.2016;21:00:00;6;6;-;-;30;;;Regen
03.01.2016;22:00:00;8;6;-;-;33;;;Regen
03.01.2016;23:00:00;1;5;-;-;28;;;Regen
04.01.2016;00:00:00;0;5;-;-;32;;;Regen
04.01.2016;01:00:00;0;5;-;-;32;;;Regen
04.01.2016;02:00:00;1;4;-;-;30;;;Regen
04.01.2016;03:00:00;0;4;-;-;28;;;Regen
04.01.2016;04:00:00;0;4;-;-;28;;;Regen
04.01.2016;05:00:00;1;3;-;-;30;;;Regen
04.01.2016;06:00:00;24;3;-;-;24;;;Regen
04.01.2016;07:00:00;57;3;-;-;13;;;Regen
04.01.2016;08:00:00;81;3;-;-;19;;;wolkig
04.01.2016;09:00:00;43;4;-;-;17;;;Regen
04.01.2016;10:00:00;61;5;-;-;13;;;Regen
04.01.2016;11:00:00;37;6;-;-;15;;;wolkig
04.01.2016;12:00:00;71;6;-;-;11;;;Regen
04.01.2016;13:00:00;54;7;-;-;11;;;wolkig
04.01.2016;14:00:00;38;8;-;-;15;;;Regen
04.01.2016;15:00:00;46;7;-;-;11;;;Regen
04.01.2016;16:00:00;77;7;-;-;11;;;Regen
04.01.2016;17:00:00;51;7;-;-;9;;;Regen
04.01.2016;18:00:00;56;8;-;-;13;;;wolkig
04.01.2016;19:00:00;27;8;-;-;13;;;Regen
04.01.2016;20:00:00;23;7;-;-;13;;;wolkig
04.01.2016;21:00:00;16;7;-;-;11;;;wolkig
04.01.2016;22:00:00;9;6;-;-;17;;;wolkig
04.01.2016;23:00:00;6;6;-;-;19;;;teilweise bewölkt
05.01.2016;00:00:00;4;7;-;-;15;;;Regen
05.01.2016;01:00:00;1;6;-;-;15;;;Klarer Himmel
05.01.2016;02:00:00;1;7;-;-;17;;;Klarer Himmel
05.01.2016;03:00:00;0;7;-;-;13;;;Klarer Himmel
05.01.2016;04:00:00;0;7;-;-;17;;;Klarer Himmel
05.01.2016;05:00:00;3;;-;-;;;;
05.01.2016;06:00:00;19;;-;-;;;;
05.01.2016;07:00:00;65;;-;-;;;;
05.01.2016;08:00:00;128;6;-;-;15;;;teilweise bewölkt
05.01.2016;09:00:00;81;7;-;-;15;;;Regen
05.01.2016;10:00:00;89;7;-;-;15;;;wolkig
05.01.2016;11:00:00;35;8;-;-;17;;;wolkig
05.01.2016;12:00:00;73;8;-;-;17;;;teilweise bewölkt
05.01.2016;13:00:00;62;8;-;-;19;;;wolkig
05.01.2016;14:00:00;62;9;-;-;17;;;wolkig
05.01.2016;15:00:00;57;8;-;-;15;;;wolkig
05.01.2016;16:00:00;83;8;-;-;15;;;wolkig
05.01.2016;17:00:00;69;8;-;-;13;;;Regen
05.01.2016;18:00:00;69;7;-;-;15;;;wolkig
05.01.2016;19:00:00;37;7;-;-;13;;;wolkig
05.01.2016;20:00:00;20;7;-;-;17;;;wolkig
05.01.2016;21:00:00;27;7;-;-;11;;;wolkig
05.01.2016;22:00:00;9;7;-;-;17;;;wolkig
05.01.2016;23:00:00;3;7;-;-;13;;;Regen
06.01.2016;00:00:00;3;6;-;-;15;;;wolkig
06.01.2016;01:00:00;0;6;-;-;13;;;teilweise bewölkt
06.01.2016;02:00:00;0;6;-;-;15;;;wolkig
06.01.2016;03:00:00;0;6;-;-;17;;;wolkig
06.01.2016;04:00:00;0;6;-;-;15;;;wolkig
06.01.2016;05:00:00;3;6;-;-;15;;;wolkig
06.01.2016;06:00:00;18;6;-;-;15;;;wolkig
06.01.2016;07:00:00;72;6;-;-;13;;;Regen
06.01.2016;08:00:00;134;6;-;-;13;;;wolkig
06.01.2016;09:00:00;70;6;-;-;15;;;wolkig
06.01.2016;10:00:00;107;7;-;-;11;;;wolkig
06.01.2016;11:00:00;54;7;-;-;13;;;wolkig
06.01.2016;12:00:00;67;8;-;-;13;;;wolkig
06.01.2016;13:00:00;58;8;-;-;9;;;wolkig
06.01.2016;14:00:00;79;8;-;-;7;;;Regen
06.01.2016;15:00:00;53;7;-;-;7;;;Regen
06.01.2016;16:00:00;89;7;-;-;6;;;wolkig
06.01.2016;17:00:00;66;7;-;-;9;;;Regen
06.01.2016;18:00:00;70;7;-;-;7;;;Regen
06.01.2016;19:00:00;54;7;-;-;11;;;Regen
06.01.2016;20:00:00;47;7;-;-;13;;;Regen
06.01.2016;21:00:00;18;6;-;-;15;;;Regen
06.01.2016;22:00:00;9;6;-;-;13;;;teilweise bewölkt
06.01.2016;23:00:00;2;6;-;-;13;;;wolkig
07.01.2016;00:00:00;1;6;-;-;15;;;wolkig
07.01.2016;01:00:00;3;6;-;-;15;;;Regen
07.01.2016;02:00:00;0;6;-;-;15;;;wolkig
07.01.2016;03:00:00;0;6;-;-;19;;;wolkig
07.01.2016;04:00:00;0;6;-;-;17;;;Klarer Himmel
07.01.2016;05:00:00;2;6;-;-;17;;;Klarer Himmel
07.01.2016;06:00:00;17;6;-;-;22;;;Klarer Himmel
07.01.2016;07:00:00;82;6;-;-;26;;;Klarer Himmel
07.01.2016;08:00:00;108;6;-;-;24;;;Klarer Himmel
07.01.2016;09:00:00;85;6;-;-;28;;;wolkig
07.01.2016;10:00:00;97;7;-;-;24;;;wolkig
07.01.2016;11:00:00;52;7;-;-;30;;;wolkig
07.01.2016;12:00:00;85;7;-;-;28;;;wolkig
07.01.2016;13:00:00;55;7;-;-;30;;;Regen
07.01.2016;14:00:00;54;6;-;-;30;;;Regen
07.01.2016;15:00:00;49;6;-;-;30;;;Regen
07.01.2016;16:00:00;59;5;-;-;33;;;Regen
07.01.2016;17:00:00;59;5;-;-;28;;;Regen
07.01.2016;18:00:00;70;6;-;-;30;;;Regen
07.01.2016;19:00:00;36;8;-;-;39;;;Regen
07.01.2016;20:00:00;41;7;-;-;41;;;wolkig
07.01.2016;21:00:00;28;7;-;-;35;;;wolkig
07.01.2016;22:00:00;14;6;-;-;33;;;teilweise bewölkt
07.01.2016;23:00:00;1;5;-;-;26;;;teilweise bewölkt
08.01.2016;00:00:00;3;6;-;-;28;;;teilweise bewölkt
08.01.2016;01:00:00;2;5;-;-;33;;;teilweise bewölkt
08.01.2016;02:00:00;0;5;-;-;32;;;teilweise bewölkt
08.01.2016;03:00:00;0;5;-;-;30;;;teilweise bewölkt
08.01.2016;04:00:00;0;4;-;-;30;;;Klarer Himmel
08.01.2016;05:00:00;2;4;-;-;28;;;Klarer Himmel
08.01.2016;06:00:00;14;3;-;-;24;;;Klarer Himmel
08.01.2016;07:00:00;62;4;-;-;19;;;teilweise bewölkt
08.01.2016;08:00:00;123;3;-;-;20;;;teilweise bewölkt
08.01.2016;09:00:00;73;5;-;-;19;;;teilweise bewölkt
08.01.2016;10:00:00;75;6;-;-;17;;;teilweise bewölkt
08.01.2016;11:00:00;57;7;-;-;19;;;teilweise bewölkt
08.01.2016;12:00:00;85;7;-;-;24;;;teilweise bewölkt
08.01.2016;13:00:00;63;8;-;-;22;;;teilweise bewölkt
08.01.2016;14:00:00;68;8;-;-;22;;;teilweise bewölkt
08.01.2016;15:00:00;71;7;-;-;17;;;teilweise bewölkt
08.01.2016;16:00:00;83;4;-;-;9;;;Klarer Himmel
08.01.2016;17:00:00;65;4;-;-;13;;;Klarer Himmel
08.01.2016;18:00:00;54;4;-;-;15;;;Klarer Himmel
08.01.2016;19:00:00;34;4;-;-;17;;;Klarer Himmel
08.01.2016;20:00:00;31;3;-;-;17;;;Klarer Himmel
08.01.2016;21:00:00;16;3;-;-;19;;;Klarer Himmel
08.01.2016;22:00:00;23;3;-;-;20;;;Klarer Himmel
08.01.2016;23:00:00;6;3;-;-;20;;;Klarer Himmel
09.01.2016;00:00:00;6;3;-;-;20;;;Klarer Himmel
09.01.2016;01:00:00;2;3;-;-;24;;;Klarer Himmel
09.01.2016;02:00:00;5;4;-;-;22;;;wolkig
09.01.2016;03:00:00;2;4;-;-;20;;;wolkig
09.01.2016;04:00:00;2;3;-;-;20;;;Klarer Himmel
09.01.2016;05:00:00;2;4;-;-;17;;;Klarer Himmel
09.01.2016;06:00:00;4;4;-;-;15;;;Klarer Himmel
09.01.2016;07:00:00;7;4;-;-;15;;;wolkig
09.01.2016;08:00:00;20;3;-;-;17;;;teilweise bewölkt
09.01.2016;09:00:00;37;4;-;-;22;;;teilweise bewölkt
09.01.2016;10:00:00;32;5;-;-;26;;;Klarer Himmel
09.01.2016;11:00:00;29;6;-;-;22;;;Klarer Himmel
09.01.2016;12:00:00;27;6;-;-;24;;;Klarer Himmel
09.01.2016;13:00:00;43;7;-;-;22;;;Klarer Himmel
09.01.2016;14:00:00;32;8;-;-;19;;;Klarer Himmel
09.01.2016;15:00:00;37;7;-;-;24;;;Klarer Himmel
09.01.2016;16:00:00;31;6;-;-;24;;;Klarer Himmel
09.01.2016;17:00:00;26;6;-;-;26;;;Klarer Himmel
09.01.2016;18:00:00;25;5;-;-;22;;;Klarer Himmel
09.01.2016;19:00:00;25;6;-;-;22;;;teilweise bewölkt
09.01.2016;20:00:00;18;6;-;-;22;;;Klarer Himmel
09.01.2016;21:00:00;10;5;-;-;22;;;teilweise bewölkt
09.01.2016;22:00:00;14;6;-;-;24;;;Klarer Himmel
09.01.2016;23:00:00;6;6;-;-;30;;;Klarer Himmel
10.01.2016;00:00:00;4;6;-;-;28;;;Klarer Himmel
10.01.2016;01:00:00;4;6;-;-;33;;;Klarer Himmel
10.01.2016;02:00:00;5;7;-;-;32;;;Regen
10.01.2016;03:00:00;3;7;-;-;32;;;Regen
10.01.2016;04:00:00;1;8;-;-;26;;;wolkig
10.01.2016;05:00:00;4;8;-;-;24;;;Regen
10.01.2016;06:00:00;6;7;-;-;19;;;Regen
10.01.2016;07:00:00;4;7;-;-;19;;;wolkig
10.01.2016;08:00:00;8;7;-;-;19;;;teilweise bewölkt
10.01.2016;09:00:00;29;7;-;-;22;;;teilweise bewölkt
10.01.2016;10:00:00;31;7;-;-;24;;;teilweise bewölkt
10.01.2016;11:00:00;43;8;-;-;24;;;teilweise bewölkt
10.01.2016;12:00:00;32;9;-;-;24;;;teilweise bewölkt
10.01.2016;13:00:00;35;9;-;-;26;;;teilweise bewölkt
10.01.2016;14:00:00;45;8;-;-;26;;;teilweise bewölkt
10.01.2016;15:00:00;27;8;-;-;24;;;Klarer Himmel
10.01.2016;16:00:00;33;8;-;-;17;;;Regen
10.01.2016;17:00:00;26;7;-;-;19;;;Regen
10.01.2016;18:00:00;16;8;-;-;22;;;wolkig
10.01.2016;19:00:00;11;7;-;-;17;;;Regen
10.01.2016;20:00:00;15;7;-;-;19;;;Regen
10.01.2016;21:00:00;10;6;-;-;15;;;wolkig
10.01.2016;22:00:00;6;6;-;-;17;;;Regen
10.01.2016;23:00:00;2;6;-;-;17;;;teilweise bewölkt
11.01.2016;00:00:00;0;5;-;-;17;;;teilweise bewölkt
11.01.2016;01:00:00;1;5;-;-;13;;;teilweise bewölkt
11.01.2016;02:00:00;0;4;-;-;17;;;teilweise bewölkt
11.01.2016;03:00:00;0;4;-;-;13;;;Klarer Himmel
11.01.2016;04:00:00;0;4;-;-;19;;;Klarer Himmel
11.01.2016;05:00:00;2;4;-;-;20;;;Klarer Himmel
11.01.2016;06:00:00;14;4;-;-;13;;;Klarer Himmel
11.01.2016;07:00:00;76;4;-;-;19;;;Klarer Himmel
11.01.2016;08:00:00;139;5;-;-;20;;;Klarer Himmel
11.01.2016;09:00:00;74;5;-;-;24;;;Klarer Himmel
11.01.2016;10:00:00;77;6;-;-;24;;;Regen
11.01.2016;11:00:00;36;6;-;-;20;;;Regen
11.01.2016;12:00:00;54;6;-;-;24;;;Regen
11.01.2016;13:00:00;58;7;-;-;24;;;Regen
11.01.2016;14:00:00;54;7;-;-;24;;;Regen
11.01.2016;15:00:00;67;7;-;-;20;;;wolkig
11.01.2016;16:00:00;70;7;-;-;19;;;wolkig
11.01.2016;17:00:00;79;7;-;-;22;;;wolkig
11.01.2016;18:00:00;76;6;-;-;24;;;Regen
11.01.2016;19:00:00;46;6;-;-;15;;;wolkig
11.01.2016;20:00:00;34;7;-;-;17;;;wolkig
11.01.2016;21:00:00;25;6;-;-;22;;;Regen
11.01.2016;22:00:00;16;6;-;-;20;;;wolkig
11.01.2016;23:00:00;12;7;-;-;22;;;wolkig
12.01.2016;00:00:00;0;6;-;-;20;;;wolkig
12.01.2016;01:00:00;1;6;-;-;20;;;wolkig
12.01.2016;02:00:00;0;6;-;-;20;;;Regen
12.01.2016;03:00:00;0;6;-;-;17;;;Regen
12.01.2016;04:00:00;0;6;-;-;22;;;Regen
12.01.2016;05:00:00;7;6;-;-;15;;;wolkig
12.01.2016;06:00:00;13;5;-;-;19;;;wolkig
12.01.2016;07:00:00;73;6;-;-;20;;;wolkig
12.01.2016;08:00:00;138;6;-;-;22;;;Regen
12.01.2016;09:00:00;93;5;-;-;20;;;wolkig
12.01.2016;10:00:00;92;6;-;-;26;;;Regen
12.01.2016;11:00:00;62;7;-;-;20;;;wolkig
12.01.2016;12:00:00;88;7;-;-;28;;;teilweise bewölkt
12.01.2016;13:00:00;70;8;-;-;30;;;Regen
12.01.2016;14:00:00;66;7;-;-;22;;;Regen
12.01.2016;15:00:00;83;8;-;-;22;;;wolkig
12.01.2016;16:00:00;88;7;-;-;19;;;wolkig
12.01.2016;17:00:00;73;6;-;-;28;;;wolkig
12.01.2016;18:00:00;99;5;-;-;26;;;teilweise bewölkt
12.01.2016;19:00:00;58;6;-;-;26;;;wolkig
12.01.2016;20:00:00;30;6;-;-;28;;;wolkig
12.01.2016;21:00:00;27;6;-;-;28;;;Regen
12.01.2016;22:00:00;11;5;-;-;26;;;Regen
12.01.2016;23:00:00;7;5;-;-;28;;;Regen
13.01.2016;00:00:00;4;5;-;-;28;;;Regen
13.01.2016;01:00:00;1;5;-;-;28;;;wolkig
13.01.2016;02:00:00;1;5;-;-;37;;;Regen
13.01.2016;03:00:00;0;6;-;-;39;;;Regen
13.01.2016;04:00:00;0;6;-;-;28;;;wolkig
13.01.2016;05:00:00;4;6;-;-;20;;;Regen
13.01.2016;06:00:00;12;6;-;-;24;;;Regen
13.01.2016;07:00:00;73;6;-;-;24;;;wolkig
13.01.2016;08:00:00;134;6;-;-;22;;;wolkig
13.01.2016;09:00:00;82;6;-;-;19;;;wolkig
13.01.2016;10:00:00;99;6;-;-;17;;;wolkig
13.01.2016;11:00:00;57;7;-;-;22;;;Regen
13.01.2016;12:00:00;80;6;-;-;22;;;wolkig
13.01.2016;13:00:00;78;5;-;-;17;;;Regen
13.01.2016;14:00:00;56;5;-;-;15;;;Regen
13.01.2016;15:00:00;56;5;-;-;19;;;Regen
13.01.2016;16:00:00;64;5;-;-;20;;;Regen
13.01.2016;17:00:00;91;5;-;-;17;;;wolkig
13.01.2016;18:00:00;103;4;-;-;13;;;wolkig
13.01.2016;19:00:00;40;4;-;-;15;;;teilweise bewölkt
13.01.2016;20:00:00;42;3;-;-;13;;;teilweise bewölkt
13.01.2016;21:00:00;26;3;-;-;17;;;teilweise bewölkt
13.01.2016;22:00:00;6;3;-;-;19;;;teilweise bewölkt
13.01.2016;23:00:00;4;2;-;-;15;;;teilweise bewölkt
14.01.2016;00:00:00;4;3;-;-;15;;;wolkig
14.01.2016;01:00:00;2;2;-;-;13;;;wolkig
14.01.2016;02:00:00;0;2;-;-;22;;;wolkig
14.01.2016;03:00:00;1;2;-;-;24;;;Klarer Himmel
14.01.2016;04:00:00;1;2;-;-;20;;;Klarer Himmel
14.01.2016;05:00:00;2;2;-;-;26;;;wolkig
14.01.2016;06:00:00;16;2;-;-;28;;;Klarer Himmel
14.01.2016;07:00:00;61;3;-;-;28;;;wolkig
14.01.2016;08:00:00;140;3;-;-;26;;;wolkig
14.01.2016;09:00:00;60;4;-;-;30;;;wolkig
14.01.2016;10:00:00;77;4;-;-;32;;;Regen
14.01.2016;11:00:00;46;4;-;-;33;;;Regen
14.01.2016;12:00:00;66;3;-;-;26;;;Regen
14.01.2016;13:00:00;50;4;-;-;20;;;Regen
14.01.2016;14:00:00;52;3;-;-;20;;;wolkig
14.01.2016;15:00:00;52;4;-;-;19;;;wolkig
14.01.2016;16:00:00;90;4;-;-;26;;;wolkig
14.01.2016;17:00:00;60;4;-;-;19;;;wolkig
14.01.2016;18:00:00;70;3;-;-;24;;;Regen
14.01.2016;19:00:00;49;4;-;-;22;;;wolkig
14.01.2016;20:00:00;41;4;-;-;28;;;wolkig
14.01.2016;21:00:00;18;4;-;-;32;;;Regen
14.01.2016;22:00:00;17;4;-;-;26;;;wolkig
14.01.2016;23:00:00;7;3;-;-;35;;;Regen
15.01.2016;00:00:00;3;3;-;-;43;;;wolkig
15.01.2016;01:00:00;1;2;-;-;37;;;Schnee
15.01.2016;02:00:00;1;2;-;-;30;;;Schnee
15.01.2016;03:00:00;0;2;-;-;26;;;wolkig
15.01.2016;04:00:00;0;2;-;-;28;;;wolkig
15.01.2016;05:00:00;2;3;-;-;32;;;wolkig
15.01.2016;06:00:00;21;3;-;-;30;;;Regen
15.01.2016;07:00:00;62;2;-;-;22;;;Regen
15.01.2016;08:00:00;88;3;-;-;24;;;wolkig
15.01.2016;09:00:00;67;3;-;-;19;;;Regen
15.01.2016;10:00:00;55;2;-;-;17;;;Regen
15.01.2016;11:00:00;29;3;-;-;20;;;Regen
15.01.2016;12:00:00;64;3;-;-;17;;;wolkig
15.01.2016;13:00:00;67;3;-;-;13;;;wolkig
15.01.2016;14:00:00;68;3;-;-;9;;;wolkig
15.01.2016;15:00:00;61;3;-;-;11;;;Regen
15.01.2016;16:00:00;36;3;-;-;7;;;wolkig
15.01.2016;17:00:00;68;3;-;-;15;;;Regen
15.01.2016;18:00:00;35;3;-;-;13;;;wolkig
15.01.2016;19:00:00;34;3;-;-;11;;;wolkig
15.01.2016;20:00:00;31;3;-;-;11;;;wolkig
15.01.2016;21:00:00;9;3;-;-;9;;;wolkig
15.01.2016;22:00:00;6;2;-;-;7;;;wolkig
15.01.2016;23:00:00;15;2;-;-;6;;;wolkig
16.01.2016;00:00:00;3;2;-;-;6;;;Regen
16.01.2016;01:00:00;10;2;-;-;7;;;Regen
16.01.2016;02:00:00;1;2;-;-;7;;;wolkig
16.01.2016;03:00:00;0;1;-;-;9;;;teilweise bewölkt
16.01.2016;04:00:00;2;1;-;-;9;;;teilweise bewölkt
16.01.2016;05:00:00;1;-2;-;-;11;;;
16.01.2016;06:00:00;3;1;-;-;17;;;wolkig
16.01.2016;07:00:00;5;1;-;-;17;;;Schnee
16.01.2016;08:00:00;12;2;-;-;20;;;wolkig
16.01.2016;09:00:00;23;3;-;-;19;;;wolkig
16.01.2016;10:00:00;29;4;-;-;22;;;Regen
16.01.2016;11:00:00;29;3;-;-;32;;;Schnee
16.01.2016;12:00:00;28;2;-;-;30;;;wolkig
16.01.2016;13:00:00;19;2;-;-;32;;;Schnee
16.01.2016;14:00:00;21;3;-;-;26;;;teilweise bewölkt
16.01.2016;15:00:00;25;4;-;-;22;;;teilweise bewölkt
16.01.2016;16:00:00;26;2;-;-;19;;;teilweise bewölkt
16.01.2016;17:00:00;25;1;-;-;17;;;teilweise bewölkt
16.01.2016;18:00:00;13;1;-;-;9;;;Klarer Himmel
16.01.2016;19:00:00;17;1;-;-;13;;;teilweise bewölkt
16.01.2016;20:00:00;14;1;-;-;13;;;teilweise bewölkt
16.01.2016;21:00:00;12;0;-;-;13;;;teilweise bewölkt
16.01.2016;22:00:00;9;0;-;-;17;;;Klarer Himmel
16.01.2016;23:00:00;3;1;-;-;17;;;Klarer Himmel
17.01.2016;00:00:00;8;1;-;-;19;;;Schnee
17.01.2016;01:00:00;4;1;-;-;17;;;teilweise bewölkt
17.01.2016;02:00:00;1;1;-;-;17;;;wolkig
17.01.2016;03:00:00;0;0;-;-;17;;;wolkig
17.01.2016;04:00:00;1;0;-;-;15;;;teilweise bewölkt
17.01.2016;05:00:00;1;0;-;-;19;;;teilweise bewölkt
17.01.2016;06:00:00;1;0;-;-;17;;;wolkig
17.01.2016;07:00:00;5;0;-;-;17;;;wolkig
17.01.2016;08:00:00;4;0;-;-;15;;;wolkig
17.01.2016;09:00:00;26;0;-;-;19;;;teilweise bewölkt
17.01.2016;10:00:00;24;0;-;-;13;;;teilweise bewölkt
17.01.2016;11:00:00;21;1;-;-;13;;;teilweise bewölkt
17.01.2016;12:00:00;30;1;-;-;11;;;wolkig
17.01.2016;13:00:00;18;1;-;-;15;;;wolkig
17.01.2016;14:00:00;56;1;-;-;13;;;wolkig
17.01.2016;15:00:00;24;1;-;-;11;;;Schnee
17.01.2016;16:00:00;20;0;-;-;11;;;Schnee
17.01.2016;17:00:00;32;-1;-;-;2;;;teilweise bewölkt
17.01.2016;18:00:00;24;-1;-;-;4;;;wolkig
17.01.2016;19:00:00;15;-2;-;-;2;;;teilweise bewölkt
17.01.2016;20:00:00;13;-2;-;-;4;;;Klarer Himmel
17.01.2016;21:00:00;11;-4;-;-;0;;;Klarer Himmel
17.01.2016;22:00:00;9;-4;-;-;4;;;Klarer Himmel
17.01.2016;23:00:00;5;-4;-;-;7;;;Klarer Himmel
18.01.2016;00:00:00;1;-4;-;-;4;;;Klarer Himmel
18.01.2016;01:00:00;0;-6;-;-;6;;;Klarer Himmel
18.01.2016;02:00:00;0;-6;-;-;6;;;Klarer Himmel
18.01.2016;03:00:00;0;-5;-;-;7;;;Klarer Himmel
18.01.2016;04:00:00;0;-6;-;-;9;;;Klarer Himmel
18.01.2016;05:00:00;0;-6;-;-;9;;;Klarer Himmel
18.01.2016;06:00:00;14;-6;-;-;9;;;Klarer Himmel
18.01.2016;07:00:00;68;-4;-;-;13;;;Klarer Himmel
18.01.2016;08:00:00;109;-4;-;-;9;;;Klarer Himmel
18.01.2016;09:00:00;71;-3;-;-;11;;;Klarer Himmel
18.01.2016;10:00:00;73;-2;-;-;17;;;Klarer Himmel
18.01.2016;11:00:00;46;-1;-;-;20;;;Klarer Himmel
18.01.2016;12:00:00;67;0;-;-;17;;;Klarer Himmel
18.01.2016;13:00:00;55;0;-;-;13;;;Klarer Himmel
18.01.2016;14:00:00;67;1;-;-;13;;;Klarer Himmel
18.01.2016;15:00:00;67;0;-;-;15;;;Klarer Himmel
18.01.2016;16:00:00;68;-1;-;-;11;;;Klarer Himmel
18.01.2016;17:00:00;53;-2;-;-;11;;;Klarer Himmel
18.01.2016;18:00:00;81;-3;-;-;9;;;Klarer Himmel
18.01.2016;19:00:00;46;-3;-;-;11;;;Klarer Himmel
18.01.2016;20:00:00;50;-3;-;-;11;;;Klarer Himmel
18.01.2016;21:00:00;20;-3;-;-;13;;;Klarer Himmel
18.01.2016;22:00:00;15;-4;-;-;13;;;Klarer Himmel
18.01.2016;23:00:00;5;-4;-;-;9;;;Klarer Himmel
19.01.2016;00:00:00;3;-4;-;-;15;;;Klarer Himmel
19.01.2016;01:00:00;0;-4;-;-;15;;;Klarer Himmel
19.01.2016;02:00:00;0;-5;-;-;19;;;Klarer Himmel
19.01.2016;03:00:00;1;-5;-;-;17;;;Klarer Himmel
19.01.2016;04:00:00;0;-5;-;-;15;;;Klarer Himmel
19.01.2016;05:00:00;8;-5;-;-;15;;;Klarer Himmel
19.01.2016;06:00:00;9;-5;-;-;17;;;Klarer Himmel
19.01.2016;07:00:00;85;-6;-;-;19;;;Klarer Himmel
19.01.2016;08:00:00;123;-6;-;-;13;;;Klarer Himmel
19.01.2016;09:00:00;80;-5;-;-;20;;;Klarer Himmel
19.01.2016;10:00:00;93;-4;-;-;17;;;Klarer Himmel
19.01.2016;11:00:00;45;-3;-;-;11;;;Klarer Himmel
19.01.2016;12:00:00;66;-2;-;-;13;;;Klarer Himmel
19.01.2016;13:00:00;71;-1;-;-;13;;;Klarer Himmel
19.01.2016;14:00:00;81;-1;-;-;9;;;Klarer Himmel
19.01.2016;15:00:00;66;-1;-;-;11;;;Klarer Himmel
19.01.2016;16:00:00;77;-3;-;-;11;;;Klarer Himmel
19.01.2016;17:00:00;62;-4;-;-;13;;;Klarer Himmel
19.01.2016;18:00:00;73;-3;-;-;11;;;wolkig
19.01.2016;19:00:00;56;-2;-;-;13;;;wolkig
19.01.2016;20:00:00;37;-2;-;-;15;;;wolkig
19.01.2016;21:00:00;16;-2;-;-;11;;;Schnee
19.01.2016;22:00:00;15;-3;-;-;11;;;Schnee
19.01.2016;23:00:00;4;-3;-;-;9;;;wolkig
20.01.2016;00:00:00;4;-2;-;-;9;;;wolkig
20.01.2016;01:00:00;0;-2;-;-;11;;;wolkig
20.01.2016;02:00:00;0;-2;-;-;11;;;wolkig
20.01.2016;03:00:00;2;-2;-;-;11;;;wolkig
20.01.2016;04:00:00;3;-2;-;-;17;;;wolkig
20.01.2016;05:00:00;5;-1;-;-;11;;;wolkig
20.01.2016;06:00:00;13;-1;-;-;13;;;Klarer Himmel
20.01.2016;07:00:00;66;-1;-;-;9;;;Klarer Himmel
20.01.2016;08:00:00;110;-1;-;-;13;;;wolkig
20.01.2016;09:00:00;83;0;-;-;15;;;wolkig
20.01.2016;10:00:00;103;1;-;-;11;;;wolkig
20.01.2016;11:00:00;36;1;-;-;13;;;wolkig
20.01.2016;12:00:00;71;2;-;-;9;;;wolkig
20.01.2016;13:00:00;63;2;-;-;11;;;wolkig
20.01.2016;14:00:00;78;2;-;-;15;;;teilweise bewölkt
20.01.2016;15:00:00;60;3;-;-;15;;;wolkig
20.01.2016;16:00:00;76;2;-;-;7;;;wolkig
20.01.2016;17:00:00;95;1;-;-;11;;;wolkig
20.01.2016;18:00:00;105;1;-;-;7;;;wolkig
20.01.2016;19:00:00;61;1;-;-;9;;;wolkig
20.01.2016;20:00:00;48;1;-;-;6;;;wolkig
20.01.2016;21:00:00;20;1;-;-;6;;;wolkig
20.01.2016;22:00:00;17;0;-;-;6;;;wolkig
20.01.2016;23:00:00;17;0;-;-;7;;;wolkig
21.01.2016;00:00:00;6;1;-;-;4;;;wolkig
21.01.2016;01:00:00;1;1;-;-;7;;;wolkig
21.01.2016;02:00:00;1;1;-;-;0;;;wolkig
21.01.2016;03:00:00;0;0;-;-;4;;;wolkig
21.01.2016;04:00:00;1;0;-;-;0;;;wolkig
21.01.2016;05:00:00;5;0;-;-;2;;;wolkig
21.01.2016;06:00:00;24;1;-;-;6;;;wolkig
21.01.2016;07:00:00;57;1;-;-;7;;;wolkig
21.01.2016;08:00:00;135;2;-;-;4;;;wolkig
21.01.2016;09:00:00;67;2;-;-;4;;;wolkig
21.01.2016;10:00:00;78;3;-;-;7;;;teilweise bewölkt
21.01.2016;11:00:00;53;3;-;-;13;;;teilweise bewölkt
21.01.2016;12:00:00;88;3;-;-;13;;;teilweise bewölkt
21.01.2016;13:00:00;68;4;-;-;11;;;teilweise bewölkt
21.01.2016;14:00:00;61;3;-;-;17;;;wolkig
21.01.2016;15:00:00;73;3;-;-;17;;;wolkig
21.01.2016;16:00:00;92;2;-;-;13;;;wolkig
21.01.2016;17:00:00;56;1;-;-;13;;;teilweise bewölkt
21.01.2016;18:00:00;84;1;-;-;9;;;teilweise bewölkt
21.01.2016;19:00:00;59;1;-;-;11;;;teilweise bewölkt
21.01.2016;20:00:00;49;1;-;-;13;;;Klarer Himmel
21.01.2016;21:00:00;18;0;-;-;15;;;Klarer Himmel
21.01.2016;22:00:00;11;0;-;-;15;;;Klarer Himmel
21.01.2016;23:00:00;6;0;-;-;13;;;Klarer Himmel
22.01.2016;00:00:00;1;0;-;-;19;;;Klarer Himmel
22.01.2016;01:00:00;0;-1;-;-;15;;;Klarer Himmel
22.01.2016;02:00:00;0;-1;-;-;15;;;Klarer Himmel
22.01.2016;03:00:00;0;-2;-;-;15;;;Klarer Himmel
22.01.2016;04:00:00;0;-2;-;-;20;;;Klarer Himmel
22.01.2016;05:00:00;1;-2;-;-;20;;;Klarer Himmel
22.01.2016;06:00:00;12;-2;-;-;20;;;Klarer Himmel
22.01.2016;07:00:00;78;-2;-;-;24;;;Klarer Himmel
22.01.2016;08:00:00;93;-2;-;-;24;;;Klarer Himmel
22.01.2016;09:00:00;68;-1;-;-;20;;;Klarer Himmel
22.01.2016;10:00:00;57;0;-;-;22;;;Klarer Himmel
22.01.2016;11:00:00;46;0;-;-;26;;;Klarer Himmel
22.01.2016;12:00:00;79;2;-;-;26;;;Klarer Himmel
22.01.2016;13:00:00;50;2;-;-;26;;;Klarer Himmel
22.01.2016;14:00:00;53;2;-;-;26;;;Klarer Himmel
22.01.2016;15:00:00;52;2;-;-;30;;;Klarer Himmel
22.01.2016;16:00:00;47;2;-;-;28;;;Klarer Himmel
22.01.2016;17:00:00;71;2;-;-;30;;;Klarer Himmel
22.01.2016;18:00:00;52;2;-;-;32;;;Klarer Himmel
22.01.2016;19:00:00;36;1;-;-;32;;;Regen
22.01.2016;20:00:00;11;0;-;-;28;;;Regen
22.01.2016;21:00:00;15;0;-;-;30;;;Regen
22.01.2016;22:00:00;4;1;-;-;24;;;Regen
22.01.2016;23:00:00;6;1;-;-;26;;;Regen
23.01.2016;00:00:00;11;1;-;-;19;;;Regen
23.01.2016;01:00:00;2;2;-;-;20;;;wolkig
23.01.2016;02:00:00;2;3;-;-;17;;;Regen
23.01.2016;03:00:00;1;3;-;-;11;;;Regen
23.01.2016;04:00:00;0;5;-;-;13;;;wolkig
23.01.2016;05:00:00;3;6;-;-;17;;;wolkig
23.01.2016;06:00:00;3;6;-;-;13;;;wolkig